TimeEST,TemperatureF,Dew PointF,Humidity,Sea Level PressureIn,VisibilityMPH,Wind Direction,Wind SpeedMPH,Gust SpeedMPH,PrecipitationIn,Events,Conditions,WindDirDegrees,DateUTC
12:07 AM,37.4,33.8,87,29.76,10.0,NW,12.7,-,N/A,,Mostly Cloudy,320,2013-02-14 05:07:00
12:23 AM,37.4,33.8,87,29.77,10.0,NNW,10.4,-,N/A,,Overcast,330,2013-02-14 05:23:00
12:52 AM,37.0,33.1,86,29.79,10.0,WNW,8.1,-,N/A,,Overcast,300,2013-02-14 05:52:00
1:52 AM,37.9,34.0,86,29.82,6.0,NW,9.2,-,N/A,,Overcast,310,2013-02-14 06:52:00
2:41 AM,37.4,33.8,87,29.84,6.0,West,3.5,-,N/A,,Overcast,280,2013-02-14 07:41:00
2:52 AM,37.0,33.1,86,29.84,5.0,West,5.8,-,N/A,,Overcast,270,2013-02-14 07:52:00
3:23 AM,35.6,33.8,93,29.84,5.0,West,5.8,-,N/A,,Overcast,280,2013-02-14 08:23:00
3:34 AM,37.4,33.8,87,29.86,5.0,West,5.8,-,N/A,,Overcast,270,2013-02-14 08:34:00
3:52 AM,37.0,33.1,86,29.87,5.0,West,8.1,-,N/A,,Overcast,260,2013-02-14 08:52:00
4:44 AM,35.6,32.0,87,29.89,5.0,West,6.9,-,N/A,,Scattered Clouds,260,2013-02-14 09:44:00
4:52 AM,36.0,32.0,86,29.90,5.0,West,6.9,-,N/A,,Partly Cloudy,260,2013-02-14 09:52:00
5:10 AM,35.6,32.0,87,29.91,3.0,WSW,5.8,-,N/A,,Scattered Clouds,240,2013-02-14 10:10:00
5:17 AM,35.6,32.0,87,29.91,3.0,SW,5.8,-,N/A,,Mostly Cloudy,230,2013-02-14 10:17:00
5:52 AM,35.1,30.9,85,29.93,4.0,WSW,8.1,-,N/A,,Mostly Cloudy,240,2013-02-14 10:52:00
6:52 AM,35.1,30.9,85,29.95,5.0,West,5.8,-,N/A,,Mostly Cloudy,260,2013-02-14 11:52:00
7:52 AM,37.0,30.9,79,29.98,5.0,West,6.9,-,N/A,,Haze,280,2013-02-14 12:52:00
8:52 AM,39.0,30.9,73,30.00,10.0,WNW,8.1,-,N/A,,Clear,290,2013-02-14 13:52:00
9:52 AM,41.0,30.9,67,30.01,10.0,WNW,11.5,-,N/A,,Clear,300,2013-02-14 14:52:00
10:52 AM,43.0,30.0,60,30.02,10.0,WNW,8.1,-,N/A,,Clear,290,2013-02-14 15:52:00
11:52 AM,45.0,28.9,53,30.02,10.0,Calm,Calm,-,N/A,,Scattered Clouds,0,2013-02-14 16:52:00
12:52 PM,46.9,30.0,52,30.00,10.0,Variable,5.8,-,N/A,,Scattered Clouds,0,2013-02-14 17:52:00
1:52 PM,46.0,27.0,47,30.01,10.0,East,6.9,-,N/A,,Scattered Clouds,90,2013-02-14 18:52:00
2:52 PM,45.0,27.0,49,29.99,10.0,ESE,9.2,-,N/A,,Partly Cloudy,110,2013-02-14 19:52:00
3:52 PM,44.1,28.0,53,30.00,10.0,ESE,9.2,-,N/A,,Partly Cloudy,110,2013-02-14 20:52:00
4:52 PM,43.0,30.0,60,29.99,10.0,ESE,8.1,-,N/A,,Scattered Clouds,120,2013-02-14 21:52:00
5:52 PM,41.0,30.0,65,30.01,10.0,SE,9.2,-,N/A,,Scattered Clouds,130,2013-02-14 22:52:00
6:52 PM,37.9,28.9,70,30.02,10.0,SE,4.6,-,N/A,,Clear,140,2013-02-14 23:52:00
7:52 PM,37.0,28.0,70,30.02,10.0,SSE,3.5,-,N/A,,Clear,150,2013-02-15 00:52:00
8:52 PM,37.0,28.9,73,30.04,10.0,Calm,Calm,-,N/A,,Clear,0,2013-02-15 01:52:00
9:52 PM,37.0,28.9,73,30.04,10.0,SE,4.6,-,N/A,,Clear,140,2013-02-15 02:52:00
10:52 PM,37.9,30.9,76,30.05,10.0,SE,6.9,-,N/A,,Clear,140,2013-02-15 03:52:00
11:52 PM,39.0,33.1,79,30.05,10.0,SSE,3.5,-,N/A,,Clear,160,2013-02-15 04:52:00